DW8454 Weather Reports


Display with metric or nautical units.
time (UTC)temp
F
wind
direction
speed
MPH
gust
MPH
rain 1hr
in
rain 24hr
in
rain mn
in
humidity
%
barometer
mb
20260505152905 66 233 12.0 20.0 0.00 0.00 0.00 72 1004.7
20260505151915 65 254 9.0 22.0 0.00 0.00 0.00 72 1004.7
20260505140544 64 227 8.0 22.0 0.00 0.00 0.00 75 1004.3
20260505124354 62 149 0.0 0.0 0.00 0.00 0.00 71 1004.1
20260505123326 62 244 0.0 0.0 0.00 0.00 0.00 71 1004.0
20260505122336 62 226 0.0 0.0 0.00 0.00 0.00 70 1003.9
20260505120303 62 252 0.0 0.0 0.00 0.00 0.00 69 1003.4
20260505115311 62 238 0.0 0.0 0.00 0.00 0.00 68 1003.0
20260505114255 62 224 0.0 0.0 0.00 0.00 0.00 68 1002.6
20260505113221 62 254 0.0 0.0 0.00 0.00 0.00 68 1002.3
20260505112202 62 242 0.0 0.0 0.00 0.00 0.00 67 1002.4
20260505111152 62 192 0.0 0.0 0.00 0.00 0.00 67 1002.4
20260505110136 62 245 0.0 0.0 0.00 0.00 0.00 67 1002.3
20260505101906 64 265 0.0 0.0 0.00 0.00 0.00 66 1002.3
20260505100836 64 211 0.0 0.0 0.00 0.00 0.00 64 1002.1
20260505095857 64 253 0.0 0.0 0.00 0.00 0.00 64 1002.1
20260505094915 65 253 0.0 0.0 0.00 0.00 0.00 63 1001.8
20260505093936 65 242 0.0 0.0 0.00 0.00 0.00 63 1001.4
20260505092926 65 240 0.0 0.0 0.00 0.00 0.00 63 1001.4
20260505091936 65 216 0.0 0.0 0.00 0.00 0.00 62 1001.4
20260505090926 66 250 0.0 0.0 0.00 0.00 0.00 61 1001.2
20260505085944 66 211 0.0 0.0 0.00 0.00 0.00 60 1001.1
20260505083815 67 238 0.0 0.0 0.00 0.00 0.00 59 1001.0
20260505082752 67 244 0.0 0.0 0.00 0.00 0.00 59 1000.8
20260505081734 67 240 0.0 0.0 0.00 0.00 0.00 59 1000.8
20260505080744 67 240 0.0 0.0 0.00 0.00 0.00 58 1000.7
20260505075731 68 255 0.0 0.0 0.00 0.00 0.00 57 1000.9
20260505074711 68 244 0.0 0.0 0.00 0.00 0.00 58 1000.8
20260505073653 68 219 0.0 0.0 0.00 0.00 0.00 58 1000.6
20260505072700 68 165 0.0 0.0 0.00 0.00 0.00 58 1000.7
20260505071645 67 252 0.0 0.0 0.00 0.00 0.00 59 1000.7
20260505070615 67 238 0.0 0.0 0.00 0.00 0.00 60 1000.7
20260505065611 67 266 0.0 0.0 0.00 0.00 0.00 62 1000.8
20260505064542 67 173 0.0 0.0 0.00 0.00 0.00 63 1000.8
20260505063523 68 199 0.0 0.0 0.00 0.00 0.00 59 1000.8
20260505062520 68 165 0.0 0.0 0.00 0.00 0.00 59 1000.8
20260505061514 68 219 0.0 0.0 0.00 0.00 0.00 60 1000.9
20260505060531 68 232 0.0 0.0 0.00 0.00 0.00 60 1000.9
20260505054405 67 196 0.0 0.0 0.00 0.00 0.00 61 1001.2
20260505053359 67 198 0.0 0.0 0.00 0.00 0.00 63 1001.2
20260505051303 66 184 0.0 0.0 0.00 0.00 0.00 64 1001.4
20260505050243 66 217 0.0 0.0 0.00 0.00 0.00 65 1001.4